sat.trackr.live / text

‹ back to catalog

STARLINK-5705

NORAD 55472 · 2023-015Z

PAYLOAD ACTIVE UNKNOWN

§ Identity

Operator
Country
US
Launch date
2023-02-02
Launch site
AFETR
Launch vehicle
Mass (kg)
RCS (m²)

Purposes: comms

External: N2YO · Heavens-Above · Gunter

§ Orbital elements

Epoch: 2026-05-25T00:20:06.881856Z

Period
94.27 min
Inclination
43.0036°
Eccentricity
0.0002671
Mean motion
15.27576819 rev/d
Perigee alt
481.2 km
Apogee alt
484.9 km
Semi-major
6,861.2 km
B*
-9.1226e-5
RAAN
250.7519°
Arg perigee
266.3996°
Mean anomaly
93.6551°
Rev number
18,247

§ Raw data

STARLINK-57051 55472U 23015Z   26145.01396854 -.00002772  00000+0 -91226-4 0  99912 55472  43.0036 250.7519 0002671 266.3996  93.6551 15.27576819182479

JSON: /api/v1/satellites/55472 · /tle

For live sub-satellite position, see the globe view (requires WebGL).

§ Visibility from observer

Set your observer location to see the next 7 days of passes ≥ 10°. The values pass through the URL so the page stays shareable.

No JS? Fill the form by hand. The geolocation button needs JavaScript.